SCP
0 0 0 0 0 0 0 0 0 0 0 0 0 0 0 0 0 0 0 0 0 0 0 0 0 0 0 0 0 0 0 0 0 0 0 0 0 0 0 0 0 0 0
0 0 0 0 0 0 0 0 0 0 0 0 0 0 0 0 0 0 0 0 0 0 0 0 0 0 0 0 0 0 0 0 0 0 0 0 0 0 0 0 0 0 0
0 0 0 0 0 0 0 0 0 0 0 0 0 0 0 0 0 0 0 0 0 0 0 0 0 0 0 0 0 0 0 0 0 0 0 0 0 0 0 0 0 0 0
0 0 0 0 0 0 0 0 0 0 0 0 0 0 0 0 0 0 0 0 0 0 0 0 0 0 0 0 0 0 0 0 0 0 0 0 0 0 0 0 0 0 0
0 0 0 0 0 0 0 0 0 0 0 0 0 0 0 0 0 0 0 0 0 0 0 0 0 0 0 0 0 0 0 0 0 0 0 0 0 0 0 0 0 0 0
0 0 0 0 0 0 0 0 0 0 0 0 0 0 0 0 0 0 0 0 0 0 0 0 0 0 0 0 0 0 0 0 0 0 0 0 0 0 0 0 0 0 0
0 0 0 0 0 0 0 0 0 0 0 0 0 0 0 0 0 0 0 0 0 0 0 0 0 0 0 0 0 0 0 0 0 0 0 0 0 0 0 0 0 0 0
0 0 0 0 0 0 0 0 0 0 0 0 0 0 0 0 0 0 0 0 0 0 0 0 0 0 0 0 0 0 0 0 0 0 0 0 0 0 0 0 0 0 0
0 0 0 0 0 0 0 0 0 0 0 0 0 0 0 0 0 0 0 0 0 0 0 0 0 0 0 0 0 0 0 0 0 0 0 0 0 0 0 0 0 0 0
0 0 0 0 0 0 0 0 0 0 0 0 0 0 0 0 0 0 0 0 0 0 0 0 0 0 0 0 0 0 0 0 0 0 0 0 0 0 0 0 0 0 0
0 0 0 0 0 0 0 0 0 0 0 0 0 0 0 0 0 0 0 0 0 0 0 0 0 0 0 0 0 0 0 0 0 0 0 0 0 0 0 0 0 0 0
0 0 0 0 0 0 0 0 0 0 0 0 0 0 0 0 0 0 0 0 0 0 0 0 0 0 0 0 0 0 0 0 0 0 0 0 0 0 0 0 0 0 0
0 0 0 0 0 0 0 0 0 0 0 0 0 0 0 0 0 0 0 0 0 0 0 0 0 0 0 0 0 0 0 0 0 0 0 0 0 0 0 0 0 0 0
0 0 0 0 0 0 0 0 0 0 0 0 0 0 0 0 0 0 0 0 0 0 0 0 0 0 0 0 0 0 0 0 0 0 0 0 0 0 0 0 0 0 0
0 0 0 0 0 0 0 0 0 0 0 0 0 0 0 0 0 0 0 0 0 0 0 0 0 0 0 0 0 0 0 0 0 0 0 0 0 0 0 0 0 0 0
0 0 0 0 0 0 0 0 0 0 0 0 0 0 0 0 0 0 0 0 0 0 0 0 0 0 0 0 0 0 0 0 0 0 0 0 0 0 0 0 0 0 0
0 0 0 0 0 0 0 0 0 0 0 0 0 0 0 0 0 0 0 0 0 0 0 0 0 0 0 0 0 0 0 0 0 0 0 0 0 0 0 0 0 0 0
0 0 0 0 0 0 0 0 0 0 0 0 0 0 0 0 0 0 0 0 0 0 0 0 0 0 0 0 0 0 0 0 0 0 0 0 0 0 0 0 0 0 0
0 0 0 0 0 0 0 0 0 0 0 0 0 0 0 0 0 0 0 0 0 0 0 0 0 0 0 0 0 0 0 0 0 0 0 0 0 0 0 0 0 0 0
0 0 0 0 0 0 0 0 0 0 0 0 0 0 0 0 0 0 0 0 0 0 0 0 0 0 0 0 0 0 0 0 0 0 0 0 0 0 0 0 0 0 0
0 0 0 0 0 0 0 0 0 0 0 0 0 0 0 0 0 0 0 0 0 0 0 0 0 0 0 0 0 0 0 0 0 0 0 0 0 0 0 0 0 0 0
0 0 0 0 0 0 0 0 0 0 0 0 0 0 0 0 0 0 0 0 0 0 0 0 0 0 0 0 0 0 0 0 0 0 0 0 0 0 0 0 0 0 0
0 0 0 0 0 0 0 0 0 0 0 0 0 0 0 0 0 0 0 0 0 0 0 0 0 0 0 0 0 0 0 0 0 0 0 0 0 0 0 0 0 0 0
0 0 0 0 0 0 0 0 0 0 0 0 0 0 0 0 0 0 0 0 0 0 0 0 0 0 0 0 0 0 0 0 0 0 0 0 0 0 0 0 0 0 0
0 0 0 0 0 0 0 0 0 0 0 0 0 0 0 0 0 0 0 0 0 0 0 0 0 0 0 0 0 0 0 0 0 0 0 0 0 0 0 0 0 0 0
0 0 0 0 0 0 0 0 0 0 0 0 0 0 0 0 0 0 0 0 0 0 0 0 0 0 0 0 0 0 0 0 0 0 0 0 0 0 0 0 0 0 0
Wind_Speed
5 5 5 5 5 5 5 6 5 5 6 6 6 6 6 6 7 6 6 6 7 6 5 6 7 6 4 5 5 5 6 6 6 5 4 4 6 6 5 5 5 6 6
5 5 5 5 5 5 5 5 5 6 6 6 6 7 6 6 7 7 7 7 8 8 7 7 7 5 6 5 5 6 6 6 6 7 5 4 6 7 6 6 5 5 6
4 5 4 5 5 5 5 5 5 5 6 6 7 7 7 7 7 7 7 8 8 8 8 8 7 7 8 6 7 6 5 5 6 6 5 4 4 5 6 6 6 5 5
4 4 5 5 5 5 5 5 5 5 6 6 6 7 7 7 7 7 7 8 8 8 8 8 8 8 8 8 7 8 6 6 6 6 5 5 4 5 5 5 5 5 5
4 4 5 5 5 5 5 5 5 5 6 6 6 6 7 7 7 7 7 8 8 8 8 8 8 9 9 8 6 7 7 6 6 6 6 5 5 5 6 5 6 5 5
5 5 4 4 4 4 4 4 4 5 5 6 6 7 7 6 8 10 8 8 8 8 8 8 8 9 10 11 11 10 10 9 8 7 7 7 7 7 6 5 5 5 5
5 4 4 4 4 4 4 4 5 5 5 6 6 6 7 7 9 11 11 8 8 8 8 7 6 6 8 8 9 11 11 13 12 9 9 9 8 7 7 7 7 7 5
4 4 4 4 4 4 4 5 5 4 5 5 6 6 6 7 9 10 11 8 7 7 8 8 8 7 7 8 8 8 9 10 10 9 9 8 7 7 7 7 7 6 4
4 4 4 4 4 4 5 5 4 4 4 5 5 6 6 6 8 10 9 6 6 7 7 7 8 8 9 10 8 8 8 8 9 10 10 9 9 9 7 5 5 5 5
4 5 4 4 4 5 5 4 4 4 4 4 4 5 6 6 7 8 8 5 5 5 5 6 9 9 10 11 8 8 8 7 6 6 7 8 8 8 9 7 6 6 4
4 4 4 4 4 5 4 3 3 3 3 3 4 4 5 6 6 8 8 5 5 5 5 5 6 10 11 12 10 8 9 7 6 6 6 6 5 6 6 6 6 6 6
4 4 4 3 3 3 3 2 2 2 3 3 3 4 3 4 5 6 8 8 7 5 5 5 5 9 11 11 9 9 9 7 5 5 5 5 5 5 5 6 6 5 5
4 4 3 3 3 2 2 2 2 2 2 2 3 3 3 3 4 7 8 9 9 6 5 8 8 9 9 8 9 9 8 5 5 5 6 5 4 4 4 4 4 4 4
4 4 3 3 2 2 2 2 2 2 2 2 3 3 3 3 3 3 4 5 7 7 5 6 9 9 8 7 7 6 5 5 5 5 5 4 3 3 4 3 4 4 3
4 4 3 3 2 2 2 2 3 3 3 4 3 3 4 4 4 6 5 5 5 5 4 3 4 4 5 4 4 4 4 4 5 4 4 3 3 4 4 3 3 3 4
3 3 3 2 2 2 2 3 4 4 6 6 6 6 5 6 7 8 8 7 7 6 5 4 5 5 5 4 4 4 4 4 4 4 4 4 4 4 4 3 3 4 4
3 3 3 2 2 3 3 3 3 4 4 5 5 6 6 7 7 7 7 6 5 5 4 4 4 4 4 4 4 4 4 4 4 4 4 4 4 4 3 4 4 4 4
3 3 3 2 2 3 3 3 3 3 4 3 5 6 7 7 7 6 6 4 3 3 3 3 3 3 4 4 4 4 4 3 3 4 4 4 4 4 4 4 4 5 4
3 2 3 3 3 3 3 3 3 3 3 4 4 5 6 7 6 5 4 2 3 3 3 3 3 3 3 3 3 3 4 4 4 3 4 4 4 4 4 4 4 5 5
2 4 4 3 2 2 2 3 3 3 3 3 3 4 4 4 3 3 3 2 2 3 2 3 3 3 3 3 3 3 3 4 4 4 4 4 4 4 4 5 5 5 5
3 3 4 3 2 3 3 3 3 3 3 3 4 4 6 4 3 3 3 3 3 3 3 3 3 3 3 3 3 3 4 3 4 4 4 4 4 4 4 4 4 4 4
2 2 2 3 3 3 3 3 3 3 4 4 4 4 6 4 3 3 3 3 3 3 3 3 3 3 3 3 3 3 4 4 4 4 4 4 4 4 4 4 4 4 4
2 2 3 3 3 4 4 3 3 3 4 4 4 4 3 3 3 3 3 3 3 3 3 3 3 3 3 3 3 4 4 4 4 4 4 4 4 4 4 5 5 5 5
2 3 3 3 3 3 3 3 3 3 4 4 4 4 4 4 4 4 3 3 3 3 3 3 3 4 5 4 3 4 4 4 4 4 5 5 5 4 4 4 5 6 5
2 3 3 3 3 3 3 3 4 4 4 4 4 4 4 4 4 4 4 3 4 4 4 4 4 4 5 6 5 5 6 8 7 4 4 4 5 5 4 5 4 5 5
3 3 3 3 3 3 3 4 4 4 4 4 4 4 4 4 4 4 4 4 4 4 4 4 4 5 6 5 6 8 9 9 8 7 4 4 4 4 5 4 5 5 5
Wind_Direction
231 229 234 222 217 216 216 217 217 215 209 207 206 209 211 212 212 214 217 216 221 226 228 229 231 230 228 224 226 228 228 229 240 244 234 229 227 226 226 231 233 228 226
240 232 236 232 220 220 222 222 220 218 214 212 209 210 213 216 216 217 219 219 221 224 226 229 232 230 231 230 226 229 229 227 231 240 237 227 233 230 228 231 235 234 233
245 236 234 237 228 228 229 227 225 223 222 216 212 213 215 218 220 220 221 222 225 228 227 228 229 228 231 230 227 227 230 229 230 235 237 231 234 229 227 234 237 237 237
249 241 237 242 238 236 234 231 228 227 227 222 220 220 219 220 222 221 221 224 226 229 229 230 230 228 231 231 230 227 225 228 228 231 233 229 229 228 223 226 232 234 236
253 247 246 248 245 237 235 235 233 231 230 226 225 226 224 223 222 223 221 223 226 229 231 231 231 232 235 234 234 231 225 225 228 229 232 229 226 221 222 221 232 239 242
260 257 258 257 250 241 238 236 235 233 233 230 226 225 226 228 231 230 227 225 226 228 232 233 234 230 233 238 242 241 237 230 228 230 231 232 231 231 229 220 223 229 240
268 270 270 266 258 251 247 239 236 235 234 236 235 232 233 235 236 234 233 231 227 227 229 231 233 232 233 237 241 243 243 240 235 234 236 235 233 227 225 221 221 230 242
274 279 281 278 272 260 251 245 242 241 236 239 240 239 240 241 240 238 236 232 232 232 231 230 232 234 231 233 237 238 240 240 237 236 241 242 240 233 229 229 226 234 248
276 282 285 281 274 263 251 248 248 246 245 247 245 242 243 248 243 240 236 234 234 236 236 235 233 236 236 234 235 237 242 242 236 239 247 247 247 240 230 225 214 214 233
291 291 290 282 274 269 259 258 259 251 250 252 253 250 248 250 246 240 233 231 233 235 234 234 234 238 240 234 234 235 240 244 235 233 239 241 239 234 227 222 220 217 225
308 304 301 293 284 279 278 271 260 256 255 254 257 258 254 252 251 242 235 232 231 233 234 234 233 237 242 240 241 240 241 248 243 234 234 235 232 226 224 226 225 223 221
322 318 314 309 301 292 287 282 267 255 252 252 254 263 261 254 251 243 240 239 239 237 238 240 239 236 241 243 244 245 245 245 241 234 229 227 226 225 224 223 225 231 236
324 320 317 318 312 306 292 282 268 255 252 260 260 262 268 262 255 248 246 245 243 242 240 242 244 242 242 242 243 245 238 232 231 230 230 228 227 228 224 217 215 221 228
327 324 323 322 324 322 305 290 274 261 260 264 265 268 272 263 260 256 251 250 248 245 247 243 241 238 237 241 241 236 230 231 233 234 233 232 219 211 216 216 216 209 216
330 328 330 328 327 322 315 306 295 278 277 279 278 276 272 268 267 275 274 259 249 246 242 237 234 228 226 227 231 234 232 227 232 236 231 220 219 219 219 213 213 214 219
327 330 333 330 328 321 318 319 317 307 304 297 294 292 287 285 284 279 276 272 257 247 241 229 228 228 228 227 229 229 230 229 229 228 225 219 218 215 215 210 206 212 221
322 322 324 326 324 322 319 317 319 323 317 313 311 306 304 302 295 286 282 273 262 245 236 231 230 229 229 229 229 229 230 231 231 228 225 219 218 215 212 215 214 217 223
323 324 323 320 318 315 313 312 312 314 316 319 321 320 321 318 312 307 300 286 259 243 239 237 234 233 232 230 230 230 231 228 227 228 224 221 216 213 212 218 219 221 225
323 322 324 325 321 318 315 314 314 313 312 315 320 321 328 325 322 324 316 278 261 254 245 244 247 245 241 237 238 238 234 232 227 229 229 225 220 216 218 219 220 224 228
319 327 331 328 327 324 319 317 316 313 311 311 314 321 325 322 316 321 319 300 282 274 268 259 254 252 249 243 240 240 239 233 225 227 232 228 223 219 220 220 219 221 225
320 326 332 330 329 326 321 317 313 309 308 310 314 319 323 318 313 313 311 308 299 290 282 275 268 259 254 253 248 244 246 247 237 231 232 228 223 223 223 221 221 223 223
313 318 322 322 322 321 319 315 311 309 310 310 311 318 324 319 312 307 306 305 302 297 291 282 276 271 263 257 255 251 247 248 247 239 236 229 223 222 221 218 215 216 217
307 313 318 319 317 317 322 318 313 310 310 311 313 315 319 317 315 312 309 305 302 300 300 291 281 281 281 269 258 252 249 248 250 248 244 235 226 222 220 218 217 218 215
303 308 312 313 312 308 306 307 307 307 308 309 310 311 312 311 308 306 305 305 304 301 298 291 283 278 280 280 270 260 255 254 251 245 240 236 231 228 224 221 220 218 216
298 302 303 302 301 301 300 301 301 303 304 305 305 306 306 305 304 303 303 302 300 296 296 293 286 281 277 276 273 268 262 260 258 250 236 231 226 224 222 223 222 220 218
297 297 296 295 293 293 293 293 294 297 297 298 297 296 297 297 296 297 298 298 297 294 290 288 286 285 285 281 274 268 265 262 259 256 244 231 224 222 219 220 220 220 216